DW1347 Weather Reports


Display with metric or nautical units.
time (UTC)temp
F
wind
direction
speed
MPH
gust
MPH
rain 1hr
in
rain 24hr
in
rain mn
in
humidity
%
barometer
mb
20260508113353 32 205 3.0 3.0 0.00 0.00 0.00 92 1023.2
20260508112850 33 221 3.0 3.0 0.00 0.00 0.00 90 1023.2
20260508112347 33 190 2.0 2.0 0.00 0.00 0.00 91 1023.2
20260508111843 34 225 0.0 1.0 0.00 0.00 0.00 90 1023.1
20260508111340 33 123 3.0 5.0 0.00 0.00 0.00 92 1023.3
20260508110837 33 150 2.0 3.0 0.00 0.00 0.00 93 1023.3
20260508110335 33 140 2.0 2.0 0.00 0.00 0.00 93 1023.1
20260508105835 33 137 5.0 5.0 0.00 0.00 0.00 93 1023.2
20260508105332 33 146 4.0 5.0 0.00 0.00 0.00 94 1023.1
20260508104828 32 236 3.0 3.0 0.00 0.00 0.00 94 1023.3
20260508104325 33 152 5.0 6.0 0.00 0.00 0.00 94 1023.1
20260508103822 33 238 2.0 2.0 0.00 0.00 0.00 94 1023.6
20260508103319 32 193 2.0 2.0 0.00 0.00 0.00 96 1023.3
20260508102817 31 232 0.0 0.0 0.00 0.00 0.00 96 1023.2
20260508102315 32 227 0.0 0.0 0.00 0.00 0.00 96 1023.1
20260508101812 31 192 2.0 2.0 0.00 0.00 0.00 96 1023.3
20260508101309 31 208 1.0 2.0 0.00 0.00 0.00 96 1023.1
20260508100807 32 253 2.0 2.0 0.00 0.00 0.00 95 1023.1
20260508100305 31 194 1.0 2.0 0.00 0.00 0.00 95 1022.8
20260508095800 32 82 1.0 1.0 0.00 0.00 0.00 96 1023.0
20260508095258 32 228 0.0 0.0 0.00 0.00 0.00 96 1022.8
20260508094755 31 194 0.0 1.0 0.00 0.00 0.00 96 1023.0
20260508094252 31 216 0.0 0.0 0.00 0.00 0.00 95 1022.8
20260508093749 31 208 1.0 1.0 0.00 0.00 0.00 95 1023.0
20260508093247 32 196 0.0 0.0 0.00 0.00 0.00 95 1022.8
20260508092743 32 227 1.0 1.0 0.00 0.00 0.00 94 1023.1
20260508092242 32 142 3.0 3.0 0.00 0.00 0.00 94 1022.7
20260508091739 32 242 1.0 1.0 0.00 0.00 0.00 93 1023.1
20260508091236 32 160 2.0 2.0 0.00 0.00 0.00 93 1023.0
20260508090734 33 226 0.0 0.0 0.00 0.00 0.00 93 1023.1
20260508090231 33 140 2.0 2.0 0.00 0.00 0.00 93 1023.0
20260508085721 33 226 0.0 0.0 0.00 0.00 0.00 92 1023.1
20260508085219 33 226 0.0 0.0 0.00 0.00 0.00 92 1022.8
20260508084714 34 206 1.0 1.0 0.00 0.00 0.00 91 1023.1
20260508084213 34 154 1.0 1.0 0.00 0.00 0.00 90 1023.3
20260508083710 35 229 0.0 0.0 0.00 0.00 0.00 89 1023.1
20260508083207 35 221 0.0 0.0 0.00 0.00 0.00 89 1023.1
20260508082702 35 198 1.0 1.0 0.00 0.00 0.00 90 1023.1
20260508082200 35 228 1.0 1.0 0.00 0.00 0.00 89 1023.5
20260508081657 36 186 0.0 0.0 0.00 0.00 0.00 89 1023.2
20260508081153 36 228 2.0 2.0 0.00 0.00 0.00 88 1023.2
20260508080650 35 200 1.0 1.0 0.00 0.00 0.00 89 1023.3
20260508080149 35 210 0.0 0.0 0.00 0.00 0.00 89 1023.6
20260508075644 35 187 1.0 2.0 0.00 0.00 0.00 88 1023.2
20260508075142 36 208 0.0 1.0 0.00 0.00 0.00 88 1023.5
20260508074639 36 226 0.0 0.0 0.00 0.00 0.00 87 1023.6
20260508074136 38 241 1.0 2.0 0.00 0.00 0.00 83 1023.7
20260508073633 39 221 0.0 1.0 0.00 0.00 0.00 82 1023.7
20260508073131 39 213 0.0 0.0 0.00 0.00 0.00 82 1024.0
20260508072627 39 213 0.0 0.0 0.00 0.00 0.00 81 1024.0
20260508072124 39 170 2.0 2.0 0.00 0.00 0.00 81 1023.7
20260508071621 38 157 2.0 3.0 0.00 0.00 0.00 81 1024.0
20260508071120 38 206 1.0 1.0 0.00 0.00 0.00 80 1023.8
20260508070617 37 166 3.0 3.0 0.00 0.00 0.00 82 1024.1
20260508070115 36 179 2.0 2.0 0.00 0.00 0.00 85 1024.1
20260508065612 36 128 2.0 3.0 0.00 0.00 0.00 84 1024.5
20260508065110 36 179 2.0 2.0 0.00 0.00 0.00 82 1024.5
20260508064608 36 195 1.0 1.0 0.00 0.00 0.00 84 1024.7
20260508064105 36 228 0.0 0.0 0.00 0.00 0.00 83 1024.5
20260508063602 35 165 2.0 2.0 0.00 0.00 0.00 84 1024.5
20260508063101 35 213 0.0 0.0 0.00 0.00 0.00 85 1024.1
20260508062558 35 227 0.0 0.0 0.00 0.00 0.00 85 1024.1
20260508062054 36 214 0.0 0.0 0.00 0.00 0.00 85 1024.2
20260508061552 35 148 3.0 3.0 0.00 0.00 0.00 85 1024.2
20260508061049 36 227 1.0 1.0 0.00 0.00 0.00 82 1024.2
20260508060545 35 145 3.0 3.0 0.00 0.00 0.00 84 1023.7
20260508060043 35 226 0.0 0.0 0.00 0.00 0.00 83 1024.1
20260508055538 35 182 2.0 2.0 0.00 0.11 0.11 84 1024.2
20260508055036 36 194 1.0 1.0 0.00 0.11 0.11 83 1024.0
20260508054532 36 149 3.0 3.0 0.00 0.11 0.11 83 1024.0
20260508054029 37 228 1.0 1.0 0.00 0.11 0.11 81 1024.2
20260508053526 36 210 1.0 1.0 0.00 0.11 0.11 82 1024.0
20260508053025 36 196 2.0 2.0 0.00 0.11 0.11 82 1024.0
20260508052521 36 214 0.0 1.0 0.00 0.11 0.11 81 1023.7
20260508052017 37 226 0.0 0.0 0.00 0.11 0.11 81 1023.6
20260508051514 37 208 0.0 1.0 0.00 0.11 0.11 82 1024.2
20260508051009 37 218 0.0 0.0 0.00 0.11 0.11 80 1023.7
20260508050506 37 188 1.0 1.0 0.00 0.11 0.11 80 1023.5
20260508050003 38 234 1.0 1.0 0.00 0.11 0.11 79 1023.6
20260508045500 38 197 0.0 0.0 0.00 0.11 0.11 78 1023.5
20260508044957 38 223 1.0 1.0 0.00 0.11 0.11 80 1023.5
20260508044454 38 211 1.0 1.0 0.00 0.11 0.11 80 1023.5
20260508043950 38 177 1.0 1.0 0.00 0.11 0.11 81 1023.3
20260508043447 39 240 2.0 2.0 0.00 0.11 0.11 77 1023.6
20260508042943 38 195 1.0 2.0 0.00 0.11 0.11 77 1023.6
20260508042441 38 219 0.0 0.0 0.00 0.11 0.11 79 1023.5
20260508041938 39 226 0.0 0.0 0.00 0.11 0.11 79 1023.5
20260508041434 39 219 0.0 0.0 0.00 0.11 0.11 78 1023.1
20260508040931 38 143 3.0 3.0 0.00 0.11 0.11 80 1023.5
20260508040429 38 135 2.0 2.0 0.00 0.11 0.11 80 1023.2
20260508035926 39 233 0.0 0.0 0.00 0.11 0.11 79 1023.3
20260508035423 40 231 1.0 1.0 0.00 0.11 0.11 76 1023.1
20260508034919 39 143 3.0 3.0 0.00 0.11 0.11 79 1023.6
20260508034417 39 218 0.0 0.0 0.00 0.11 0.11 79 1024.0
20260508033913 40 239 2.0 2.0 0.00 0.11 0.11 76 1023.3
20260508033412 40 194 2.0 2.0 0.00 0.11 0.11 78 1023.3
20260508032909 40 241 2.0 2.0 0.00 0.11 0.11 77 1023.5
20260508032406 41 226 1.0 1.0 0.00 0.11 0.11 70 1023.3
20260508031903 40 178 2.0 2.0 0.00 0.11 0.11 76 1023.2
20260508031400 42 227 0.0 0.0 0.00 0.11 0.11 73 1023.0
20260508030855 43 189 1.0 1.0 0.00 0.11 0.11 72 1023.3
20260508030353 43 179 1.0 1.0 0.00 0.11 0.11 68 1023.2
20260508025850 45 196 1.0 1.0 0.00 0.11 0.11 64 1023.3
20260508025347 42 211 0.0 1.0 0.00 0.11 0.11 70 1023.1
20260508024843 42 163 2.0 2.0 0.00 0.11 0.11 69 1023.5
20260508024340 43 233 2.0 2.0 0.00 0.11 0.11 69 1023.2
20260508023837 43 178 0.0 0.0 0.00 0.11 0.11 69 1023.2
20260508023334 43 219 0.0 0.0 0.00 0.11 0.11 68 1023.1
20260508022830 44 222 0.0 0.0 0.00 0.11 0.11 67 1023.3
20260508022326 44 173 1.0 2.0 0.00 0.11 0.11 70 1023.7
20260508021824 45 230 0.0 0.0 0.00 0.11 0.11 66 1023.5
20260508021320 46 225 0.0 0.0 0.00 0.11 0.11 65 1023.2
20260508020816 46 224 0.0 0.0 0.00 0.11 0.11 62 1023.1
20260508020314 47 225 0.0 0.0 0.00 0.11 0.11 61 1023.2
20260508015810 48 226 0.0 0.0 0.00 0.11 0.11 57 1022.7
20260508015308 50 192 1.0 2.0 0.00 0.11 0.11 55 1022.7
20260508014805 50 267 7.0 10.0 0.00 0.11 0.11 53 1022.7
20260508014302 51 197 0.0 0.0 0.00 0.11 0.11 53 1022.5
20260508013757 51 263 2.0 2.0 0.00 0.11 0.11 51 1022.7
20260508013254 51 247 1.0 2.0 0.00 0.11 0.11 50 1022.7
20260508012751 52 273 4.0 5.0 0.00 0.11 0.11 50 1022.3
20260508012248 53 228 3.0 3.0 0.00 0.11 0.11 47 1022.6
20260508011747 53 277 9.0 11.0 0.00 0.11 0.11 45 1022.5
20260508011243 53 308 5.0 7.0 0.00 0.11 0.11 44 1022.1
20260508010740 53 255 5.0 7.0 0.00 0.11 0.11 43 1022.0
20260508010238 54 230 0.0 1.0 0.00 0.11 0.11 44 1022.0
20260508005735 55 259 4.0 5.0 0.00 0.11 0.11 43 1022.2
20260508005232 55 287 1.0 1.0 0.00 0.11 0.11 42 1021.7
20260508004727 56 221 2.0 2.0 0.00 0.11 0.11 42 1022.1
20260508004224 55 226 3.0 5.0 0.00 0.11 0.11 41 1022.0
20260508003721 56 246 2.0 3.0 0.00 0.11 0.11 41 1022.0
20260508003218 56 221 2.0 2.0 0.00 0.11 0.11 42 1021.8
20260508002714 57 272 4.0 5.0 0.00 0.11 0.11 39 1021.8
20260508002212 58 244 5.0 6.0 0.00 0.11 0.11 38 1021.6
20260508001707 58 203 3.0 6.0 0.00 0.11 0.11 38 1021.7
20260508001158 58 245 4.0 5.0 0.00 0.11 0.11 37 1022.0
20260508000654 58 296 6.0 9.0 0.00 0.11 0.11 39 1021.6
20260508000151 58 227 9.0 10.0 0.00 0.11 0.11 38 1021.6
20260507235648 57 235 3.0 3.0 0.00 0.11 0.11 38 1021.8
20260507235145 58 229 4.0 5.0 0.00 0.11 0.11 41 1022.0
20260507234642 57 250 4.0 6.0 0.00 0.11 0.11 38 1021.7
20260507234138 57 351 7.0 9.0 0.00 0.11 0.11 40 1022.0
20260507233635 57 206 4.0 5.0 0.00 0.11 0.11 37 1021.8
20260507233134 58 352 12.0 16.0 0.00 0.11 0.11 36 1021.8
20260507232630 59 239 7.0 9.0 0.00 0.11 0.11 36 1021.7
20260507232127 58 204 3.0 5.0 0.00 0.11 0.11 37 1022.0
20260507231623 58 356 6.0 7.0 0.00 0.11 0.11 38 1021.6
20260507231121 57 282 4.0 5.0 0.00 0.11 0.11 38 1021.8
20260507230617 57 232 3.0 5.0 0.00 0.11 0.11 37 1021.7
20260507230114 57 243 2.0 3.0 0.00 0.11 0.11 37 1022.0
20260507225609 56 223 0.0 0.0 0.00 0.11 0.11 38 1021.4
20260507225106 56 238 4.0 5.0 0.00 0.11 0.11 38 1021.8
20260507224601 56 270 2.0 2.0 0.00 0.11 0.11 41 1021.8
20260507224058 56 316 7.0 8.0 0.00 0.11 0.11 38 1021.8
20260507223554 56 354 3.0 5.0 0.00 0.11 0.11 38 1022.0
20260507223051 55 233 3.0 3.0 0.00 0.11 0.11 39 1022.0
20260507222548 55 300 7.0 9.0 0.00 0.11 0.11 38 1022.0
20260507222045 55 222 4.0 5.0 0.00 0.11 0.11 39 1022.0
20260507221541 54 309 5.0 7.0 0.00 0.11 0.11 39 1021.8
20260507221038 55 325 5.0 7.0 0.00 0.11 0.11 39 1022.3
20260507220535 54 248 2.0 2.0 0.00 0.11 0.11 41 1022.3
20260507220033 55 267 2.0 2.0 0.00 0.11 0.11 39 1022.1
20260507215528 55 254 3.0 5.0 0.00 0.11 0.11 40 1022.2
20260507215027 55 317 7.0 8.0 0.00 0.11 0.11 38 1022.6
20260507214524 55 292 5.0 6.0 0.00 0.11 0.11 40 1022.6
20260507214019 55 279 3.0 5.0 0.00 0.11 0.11 41 1022.5
20260507213516 55 281 5.0 6.0 0.00 0.11 0.11 39 1023.0
20260507213013 55 253 3.0 3.0 0.00 0.11 0.11 40 1022.5
20260507212508 55 262 3.0 5.0 0.00 0.11 0.11 39 1022.2
20260507212005 55 261 7.0 7.0 0.00 0.11 0.11 38 1022.7
20260507211502 55 239 4.0 5.0 0.00 0.11 0.11 41 1022.7
20260507210959 55 221 4.0 6.0 0.00 0.11 0.11 41 1023.0
20260507210455 55 254 4.0 5.0 0.00 0.11 0.11 39 1022.7
20260507205952 55 268 4.0 5.0 0.00 0.11 0.11 40 1023.1
20260507205444 55 222 2.0 2.0 0.00 0.11 0.11 43 1023.0
20260507204940 55 229 3.0 5.0 0.00 0.11 0.11 41 1023.3
20260507204436 55 281 4.0 5.0 0.00 0.11 0.11 43 1023.3
20260507203934 56 288 5.0 6.0 0.00 0.11 0.11 43 1023.5
20260507203432 54 225 1.0 2.0 0.00 0.11 0.11 45 1023.5
20260507202928 53 242 3.0 3.0 0.00 0.11 0.11 47 1023.2
20260507202425 54 228 3.0 3.0 0.00 0.11 0.11 49 1023.3
20260507201920 53 232 1.0 2.0 0.00 0.11 0.11 42 1023.6
20260507201415 53 256 3.0 3.0 0.00 0.11 0.11 40 1023.3
20260507200913 53 247 3.0 6.0 0.00 0.11 0.11 42 1023.6
20260507200408 54 224 3.0 3.0 0.00 0.11 0.11 43 1023.6
20260507195904 53 242 3.0 3.0 0.00 0.11 0.11 43 1023.6
20260507195402 54 335 4.0 6.0 0.00 0.11 0.11 42 1023.6
20260507194859 54 271 8.0 11.0 0.00 0.11 0.11 43 1023.6
20260507194356 54 228 1.0 2.0 0.00 0.11 0.11 42 1023.6
20260507193852 54 359 5.0 7.0 0.00 0.11 0.11 44 1023.5
20260507193349 54 234 1.0 1.0 0.00 0.11 0.11 42 1023.7
20260507192846 54 250 1.0 2.0 0.00 0.11 0.11 40 1023.7
20260507192342 55 240 2.0 2.0 0.00 0.11 0.11 48 1024.0
20260507191838 56 230 1.0 1.0 0.00 0.11 0.11 40 1023.6
20260507191334 54 262 3.0 3.0 0.00 0.11 0.11 42 1023.6
20260507190832 55 225 3.0 5.0 0.00 0.11 0.11 42 1023.7
20260507190330 56 311 9.0 11.0 0.00 0.11 0.11 43 1023.6
20260507185829 56 214 3.0 5.0 0.00 0.11 0.11 41 1023.8
20260507185325 54 231 2.0 3.0 0.00 0.11 0.11 48 1023.8
20260507184822 53 227 2.0 2.0 0.00 0.11 0.11 45 1024.0
20260507184320 55 249 4.0 5.0 0.00 0.11 0.11 49 1023.7
20260507183816 54 349 1.0 2.0 0.00 0.11 0.11 46 1024.0
20260507183314 54 295 4.0 5.0 0.00 0.11 0.11 50 1023.7
20260507182811 54 261 6.0 8.0 0.00 0.11 0.11 46 1023.8
20260507182307 54 205 4.0 6.0 0.00 0.11 0.11 47 1023.8
20260507181803 53 46 5.0 7.0 0.00 0.11 0.11 53 1024.1
20260507181259 53 114 5.0 6.0 0.00 0.11 0.11 51 1023.8
20260507180755 50 216 0.0 1.0 0.00 0.11 0.11 67 1024.1
20260507180253 48 218 0.0 0.0 0.00 0.11 0.11 71 1023.7
20260507175748 46 223 0.0 0.0 0.00 0.11 0.11 76 1024.0
20260507175246 46 216 0.0 0.0 0.00 0.11 0.11 80 1024.0
20260507174743 45 271 0.0 1.0 0.00 0.11 0.11 77 1024.2
20260507174241 45 196 2.0 3.0 0.00 0.11 0.11 75 1024.4
20260507173738 45 198 2.0 2.0 0.00 0.11 0.11 77 1024.4
20260507173235 44 224 0.0 0.0 0.00 0.11 0.11 75 1024.7
20260507172731 43 228 0.0 1.0 0.00 0.11 0.11 75 1024.5
20260507172229 43 233 0.0 1.0 0.00 0.11 0.11 77 1024.4
20260507171728 43 216 1.0 1.0 0.00 0.11 0.11 78 1024.4
20260507171226 42 209 2.0 2.0 0.00 0.11 0.11 78 1024.5
20260507170723 42 219 0.0 1.0 0.00 0.11 0.11 80 1024.4
20260507170220 41 192 1.0 1.0 0.00 0.11 0.11 82 1024.5
20260507165715 41 186 0.0 1.0 0.00 0.11 0.11 83 1024.7
20260507165212 41 189 2.0 2.0 0.00 0.11 0.11 85 1024.9
20260507164708 42 252 3.0 3.0 0.00 0.11 0.11 84 1024.9
20260507164206 42 229 0.0 0.0 0.00 0.11 0.11 84 1024.7
20260507163702 42 225 1.0 1.0 0.00 0.11 0.11 80 1024.5
20260507163200 41 218 0.0 1.0 0.00 0.11 0.11 83 1024.9
20260507162655 42 206 1.0 1.0 0.00 0.11 0.11 80 1024.9
20260507162152 41 192 2.0 2.0 0.00 0.11 0.11 83 1025.0
20260507161648 42 240 1.0 2.0 0.00 0.11 0.11 80 1024.6
20260507161145 42 202 3.0 3.0 0.00 0.11 0.11 73 1024.7
20260507160641 41 139 5.0 5.0 0.00 0.11 0.11 83 1024.9
20260507160138 42 167 2.0 2.0 0.00 0.11 0.11 81 1024.9
20260507155634 42 227 0.0 0.0 0.07 0.11 0.11 81 1025.1
20260507155130 41 266 1.0 2.0 0.07 0.11 0.11 83 1025.1
20260507154627 43 152 3.0 5.0 0.00 0.10 0.10 84 1025.2
20260507154125 43 183 3.0 5.0 0.00 0.10 0.10 72 1025.0
20260507153621 44 203 1.0 1.0 0.00 0.10 0.10 77 1025.1
20260507153117 44 129 1.0 2.0 0.05 0.10 0.10 80 1025.2
20260507152614 43 217 1.0 1.0 0.05 0.10 0.10 83 1024.9
20260507152110 46 237 4.0 5.0 0.00 0.09 0.09 79 1025.1
20260507151606 46 208 2.0 2.0 0.07 0.09 0.09 74 1024.7
20260507151103 46 199 1.0 1.0 0.12 0.09 0.09 65 1024.7
20260507150600 48 284 3.0 3.0 0.12 0.08 0.08 60 1024.9
20260507150057 49 194 1.0 1.0 0.12 0.07 0.07 60 1025.1
20260507145552 49 111 2.0 2.0 0.17 0.06 0.06 63 1025.0
20260507145050 48 262 3.0 3.0 0.19 0.05 0.05 68 1025.0
20260507144546 47 204 1.0 1.0 0.12 0.03 0.03 65 1025.1
20260507144044 47 171 3.0 3.0 0.05 0.02 0.02 73 1025.1
20260507143541 47 164 1.0 1.0 0.07 0.01 0.01 69 1024.7
20260507143039 47 226 2.0 2.0 0.07 0.01 0.01 69 1025.0
20260507142533 43 202 0.0 0.0 0.00 0.00 0.00 67 1024.5
20260507142031 40 215 0.0 0.0 0.00 0.00 0.00 82 1025.0
20260507141526 42 231 0.0 1.0 0.00 0.00 0.00 77 1024.6
20260507141023 40 237 0.0 0.0 0.00 0.00 0.00 77 1025.0
20260507140520 39 223 2.0 2.0 0.00 0.00 0.00 81 1024.9
20260507140012 40 230 2.0 2.0 0.00 0.00 0.00 77 1024.7
20260507135508 39 230 1.0 1.0 0.00 0.00 0.00 74 1025.0
20260507135006 36 157 2.0 2.0 0.00 0.00 0.00 82 1025.1
20260507134502 35 107 7.0 9.0 0.00 0.00 0.00 85 1025.2
20260507133958 34 139 4.0 5.0 0.00 0.00 0.00 82 1024.6
20260507133454 34 306 2.0 3.0 0.00 0.00 0.00 85 1024.7
20260507132953 33 162 3.0 3.0 0.00 0.00 0.00 87 1024.9
20260507132449 33 252 2.0 2.0 0.00 0.00 0.00 85 1024.7
20260507131945 31 210 0.0 1.0 0.00 0.00 0.00 87 1024.9
20260507131442 31 221 1.0 1.0 0.00 0.00 0.00 88 1024.6
20260507130939 30 211 0.0 0.0 0.00 0.00 0.00 89 1025.0
20260507130436 31 237 3.0 3.0 0.00 0.00 0.00 90 1025.0
20260507125935 29 137 2.0 2.0 0.00 0.00 0.00 90 1024.7
20260507125433 28 224 0.0 0.0 0.00 0.00 0.00 92 1025.0
20260507124930 27 123 2.0 2.0 0.00 0.00 0.00 94 1025.0
20260507124426 27 241 0.0 1.0 0.00 0.00 0.00 93 1024.9
20260507123924 27 235 0.0 0.0 0.00 0.00 0.00 93 1025.4
20260507123421 27 199 1.0 1.0 0.00 0.00 0.00 94 1024.9
20260507122918 27 203 1.0 1.0 0.00 0.00 0.00 95 1025.0
20260507122413 26 201 0.0 0.0 0.00 0.00 0.00 93 1025.0
20260507121909 27 107 2.0 2.0 0.00 0.00 0.00 93 1024.9
20260507121405 27 229 1.0 1.0 0.00 0.00 0.00 92 1024.7
20260507120901 27 206 0.0 1.0 0.00 0.00 0.00 91 1024.7
20260507120358 26 222 1.0 1.0 0.00 0.00 0.00 93 1024.7
20260507115855 26 212 0.0 1.0 0.00 0.00 0.00 92 1024.7
20260507115351 26 139 1.0 2.0 0.00 0.00 0.00 92 1024.5
20260507114846 26 239 0.0 1.0 0.00 0.00 0.00 92 1024.5
20260507114343 26 89 3.0 3.0 0.00 0.00 0.00 92 1024.5
20260507113841 25 190 1.0 2.0 0.00 0.00 0.00 93 1024.7